Des Moines, IA

2:16 AM CDT on April 30, 2017 (GMT -0500)
Des Moines International

Weather History for KDSM - April, 2013

Change the Weather History Date:

Friday, April 5, 2013

  Actual Average Record
Temperature  
Mean Temperature 49 °F 48 °F  
Max Temperature 63 °F 58 °F 86 °F (2000)
Min Temperature 35 °F 37 °F 16 °F (1982)
Degree Days  
Heating Degree Days 16 18  
Month to date heating degree days 117 92  
Since 1 July heating degree days 5446 5719  
Cooling Degree Days 0 0  
Month to date cooling degree days 0 0  
Year to date cooling degree days 0 1  
Moisture  
Dew Point 29 °F    
Average Humidity 48    
Maximum Humidity 70    
Minimum Humidity 26    
Precipitation  
Precipitation 0.00 in 0.11 in 1.22 in (1965)
Month to date precipitation 0.00 0.49  
Year to date precipitation 4.52 5.07  
Snow  
Snow 0.00 in 0.10 in 6.60 in (1982)
Month to date snowfall 0.0 0.5  
Since 1 July snowfall 48.3 34.0  
Snow Depth 0.00 in    
Sea Level Pressure  
Sea Level Pressure 30.08 in    
Wind  
Wind Speed 13 mph (ESE)    
Max Wind Speed 23 mph    
Max Gust Speed 29 mph    
Visibility 10 miles    
Events      
T = Trace of Precipitation, MM = Missing Value Source: NWS Daily Summary

Daily Weather History Graph

Daily Weather History Graph

Search for Another Location

Airport or City:

Trip Planner

Search our weather history database for the weather conditions in past years. The results will help you decide how hot, cold, wet, or windy it might be!

Date:

Astronomy

Apr. 05, 2013 Rise Set
Actual Time 6:50 AM CDT 7:44 PM CDT
Civil Twilight 6:22 AM CDT 8:12 PM CDT
Nautical Twilight 5:48 AM CDT 8:46 PM CDT
Astronomical Twilight 5:14 AM CDT 9:21 PM CDT
Moon 4:01 AM CDT (4/5) 3:06 PM CDT (4/5)
Length of Visible Light 13h 50m
Length of Day
12h 54m
Waning Crescent, 23% of the Moon is Illuminated
Apr 5
Waning Crescent
Apr 10
New
Apr 18
First Quarter
Apr 25
Full
May 2
Last Quarter

Hourly Weather History & Observations

Time (CDT) Temp. Windchill Dew Point Humidity Pressure Visibility Wind Dir Wind Speed Gust Speed Precip Events Conditions
12:54 AM 44.1 °F 38.1 °F 30.9 °F 60% 30.15 in 10.0 mi North 11.5 mph - N/A   Clear
1:54 AM 42.1 °F 35.7 °F 30.0 °F 62% 30.17 in 10.0 mi North 11.5 mph - N/A   Scattered Clouds
2:54 AM 41.0 °F 35.2 °F 28.9 °F 62% 30.17 in 10.0 mi North 9.2 mph - N/A   Overcast
3:54 AM 39.0 °F 34.0 °F 28.0 °F 65% 30.17 in 10.0 mi North 6.9 mph - N/A   Mostly Cloudy
4:54 AM 37.9 °F 31.5 °F 28.0 °F 68% 30.18 in 10.0 mi North 9.2 mph - N/A   Partly Cloudy
5:54 AM 36.0 °F 30.3 °F 27.0 °F 70% 30.19 in 10.0 mi NNE 6.9 mph - N/A   Clear
6:54 AM 35.1 °F 27.9 °F 27.0 °F 72% 30.20 in 10.0 mi NE 9.2 mph - N/A   Partly Cloudy
7:54 AM 37.9 °F 32.1 °F 27.0 °F 65% 30.21 in 10.0 mi ENE 8.1 mph - N/A   Mostly Cloudy
8:54 AM 39.9 °F 33.9 °F 27.0 °F 60% 30.21 in 10.0 mi ENE 9.2 mph - N/A   Mostly Cloudy
9:54 AM 43.0 °F 38.8 °F 27.0 °F 53% 30.20 in 10.0 mi ESE 6.9 mph - N/A   Overcast
10:54 AM 48.0 °F - 27.0 °F 44% 30.19 in 10.0 mi SSE 10.4 mph - N/A   Overcast
11:54 AM 52.0 °F - 28.0 °F 40% 30.17 in 10.0 mi South 10.4 mph - N/A   Overcast
12:54 PM 55.9 °F - 25.0 °F 30% 30.14 in 10.0 mi SE 11.5 mph 16.1 mph N/A   Overcast
1:54 PM 57.9 °F - 24.1 °F 27% 30.11 in 10.0 mi SSE 12.7 mph - N/A   Overcast
2:54 PM 59.0 °F - 25.0 °F 27% 30.07 in 10.0 mi SSE 16.1 mph - N/A   Overcast
3:54 PM 61.0 °F - 27.0 °F 27% 30.03 in 10.0 mi SSE 13.8 mph 23.0 mph N/A   Overcast
4:54 PM 62.1 °F - 28.0 °F 28% 29.99 in 10.0 mi SE 16.1 mph 24.2 mph N/A   Overcast
5:54 PM 62.1 °F - 28.9 °F 29% 29.95 in 10.0 mi SE 18.4 mph - N/A   Overcast
6:54 PM 61.0 °F - 30.0 °F 31% 29.94 in 10.0 mi SE 16.1 mph - N/A   Overcast
7:54 PM 59.0 °F - 30.9 °F 35% 29.92 in 10.0 mi SE 12.7 mph - N/A   Overcast
8:54 PM 59.0 °F - 30.9 °F 35% 29.90 in 10.0 mi SE 16.1 mph - N/A   Overcast
9:54 PM 57.0 °F - 33.1 °F 40% 29.90 in 10.0 mi SE 15.0 mph - N/A   Overcast
10:54 PM 57.0 °F - 34.0 °F 42% 29.87 in 10.0 mi SE 21.9 mph 26.5 mph N/A   Overcast
11:54 PM 55.9 °F - 35.1 °F 45% 29.84 in 10.0 mi SE 20.7 mph - N/A   Overcast